When you browse on this site, cookies collect data to enhance your experience and personalize the content and advertising you see.
Visit our Privacy Policy to learn more. By continuing to use the site, you agree to this use of cookies and data.

Stündliche Wetter Graz

Heute, 12 August, Mittwoch

Zeit Temperatur Niederschläge Wind Luftdruck Luftfeuchtigkeit
00:00 +20°C° 0.3 mm 1 m/S 726 mmHg 90%
01:00 +20°C° 0.3 mm 1 m/S 726 mmHg 91%
02:00 +20°C° 0.1 mm 1 m/S 726 mmHg 91%
03:00 +19°C° 0.1 mm 1 m/S 725 mmHg 91%
04:00 +19°C° 0.1 mm 1 m/S 725 mmHg 91%
05:00 +18°C° 0 mm 0 m/S 725 mmHg 90%
06:00 +19°C° 0 mm 0 m/S 726 mmHg 89%
07:00 +20°C° 0 mm 0 m/S 726 mmHg 87%
08:00 +22°C° 0 mm 0 m/S 726 mmHg 78%
09:00 +26°C° 0 mm 1 m/S 726 mmHg 70%
10:00 +28°C° 0 mm 1 m/S 727 mmHg 61%
11:00 +28°C° 0.4 mm 1 m/S 726 mmHg 61%
12:00 +29°C° 0.4 mm 1 m/S 726 mmHg 61%
13:00 +29°C° 0.4 mm 2 m/S 726 mmHg 61%
14:00 +29°C° 0.9 mm 1 m/S 726 mmHg 64%
15:00 +28°C° 0.9 mm 1 m/S 726 mmHg 67%
16:00 +28°C° 0.9 mm 1 m/S 725 mmHg 70%
17:00 +26°C° 0.2 mm 1 m/S 725 mmHg 74%
18:00 +25°C° 0.2 mm 1 m/S 725 mmHg 79%
19:00 +22°C° 0.2 mm 0 m/S 725 mmHg 83%
20:00 +21°C° 0 mm 0 m/S 725 mmHg 84%
21:00 +20°C° 0 mm 0 m/S 725 mmHg 86%
22:00 +19°C° 0 mm 0 m/S 726 mmHg 87%
23:00 +19°C° 0 mm 0 m/S 725 mmHg 88%

Morgen, 13 August, Donnerstag

Zeit Temperatur Niederschläge Wind Luftdruck Luftfeuchtigkeit
00:00 +19°C° 0 mm 0 m/S 725 mmHg 88%
01:00 +19°C° 0 mm 0 m/S 725 mmHg 89%
02:00 +18°C° 0 mm 0 m/S 725 mmHg 90%
03:00 +18°C° 0 mm 0 m/S 725 mmHg 90%
04:00 +20°C° 0 mm 1 m/S 725 mmHg 91%
05:00 +19°C° 0.1 mm 0 m/S 725 mmHg 90%
06:00 +20°C° 0.1 mm 0 m/S 725 mmHg 88%
07:00 +21°C° 0.1 mm 0 m/S 725 mmHg 86%
08:00 +23°C° 0 mm 0 m/S 725 mmHg 78%
09:00 +27°C° 0 mm 1 m/S 725 mmHg 69%
10:00 +29°C° 0 mm 1 m/S 725 mmHg 61%
11:00 +30°C° 0.2 mm 1 m/S 725 mmHg 59%
12:00 +30°C° 0.2 mm 1 m/S 725 mmHg 58%
13:00 +31°C° 0.2 mm 1 m/S 724 mmHg 57%
14:00 +30°C° 1 mm 1 m/S 724 mmHg 62%
15:00 +30°C° 1 mm 1 m/S 724 mmHg 66%
16:00 +29°C° 1 mm 1 m/S 724 mmHg 71%
17:00 +27°C° 1.5 mm 1 m/S 723 mmHg 76%
18:00 +25°C° 1.5 mm 1 m/S 723 mmHg 82%
19:00 +23°C° 1.5 mm 1 m/S 723 mmHg 87%
20:00 +23°C° 0.2 mm 1 m/S 723 mmHg 87%
21:00 +22°C° 0.2 mm 1 m/S 723 mmHg 87%
22:00 +22°C° 0.2 mm 1 m/S 724 mmHg 88%
23:00 +21°C° 0.1 mm 1 m/S 723 mmHg 88%

übermorgen, 14 August, Freitag

Zeit Temperatur Niederschläge Wind Luftdruck Luftfeuchtigkeit
00:00 +21°C° 0.1 mm 1 m/S 723 mmHg 88%
01:00 +21°C° 0.1 mm 1 m/S 723 mmHg 88%
02:00 +21°C° 0 mm 1 m/S 723 mmHg 88%
03:00 +20°C° 0 mm 1 m/S 723 mmHg 87%
04:00 +20°C° 0 mm 1 m/S 723 mmHg 87%
05:00 +21°C° 0 mm 1 m/S 723 mmHg 85%
06:00 +22°C° 0 mm 1 m/S 723 mmHg 84%
07:00 +22°C° 0 mm 1 m/S 723 mmHg 82%
08:00 +24°C° 0.1 mm 1 m/S 723 mmHg 75%
09:00 +26°C° 0.1 mm 1 m/S 723 mmHg 68%
10:00 +27°C° 0.1 mm 1 m/S 723 mmHg 61%
11:00 +27°C° 1 mm 1 m/S 723 mmHg 64%
12:00 +27°C° 1 mm 1 m/S 723 mmHg 67%
13:00 +27°C° 1 mm 2 m/S 723 mmHg 70%
14:00 +26°C° 1.7 mm 1 m/S 722 mmHg 76%
15:00 +25°C° 1.7 mm 1 m/S 722 mmHg 82%
16:00 +23°C° 1.7 mm 1 m/S 722 mmHg 88%
17:00 +22°C° 1.9 mm 1 m/S 722 mmHg 90%
18:00 +22°C° 1.9 mm 1 m/S 722 mmHg 92%
19:00 +21°C° 1.9 mm 1 m/S 722 mmHg 94%
20:00 +21°C° 0.4 mm 1 m/S 722 mmHg 93%
21:00 +20°C° 0.4 mm 1 m/S 723 mmHg 93%
22:00 +20°C° 0.4 mm 1 m/S 723 mmHg 93%
23:00 +20°C° 0.2 mm 1 m/S 723 mmHg 93%

15 August, Samstag

Zeit Temperatur Niederschläge Wind Luftdruck Luftfeuchtigkeit
00:00 +20°C° 0.2 mm 1 m/S 723 mmHg 93%
01:00 +20°C° 0.2 mm 1 m/S 723 mmHg 93%
02:00 +20°C° 0.4 mm 1 m/S 723 mmHg 93%
03:00 +20°C° 0.4 mm 1 m/S 723 mmHg 93%
04:00 +20°C° 0.4 mm 1 m/S 723 mmHg 94%
05:00 +20°C° 0.1 mm 1 m/S 723 mmHg 93%
06:00 +20°C° 0.1 mm 1 m/S 723 mmHg 93%
07:00 +21°C° 0.1 mm 1 m/S 723 mmHg 92%
08:00 +21°C° 0.3 mm 1 m/S 723 mmHg 91%
09:00 +22°C° 0.3 mm 1 m/S 723 mmHg 89%
10:00 +23°C° 0.3 mm 1 m/S 724 mmHg 88%
11:00 +24°C° 0.7 mm 1 m/S 723 mmHg 83%
12:00 +25°C° 0.7 mm 1 m/S 723 mmHg 79%
13:00 +26°C° 0.7 mm 1 m/S 723 mmHg 75%
14:00 +26°C° 1.1 mm 1 m/S 723 mmHg 74%
15:00 +26°C° 1.1 mm 1 m/S 723 mmHg 73%
16:00 +26°C° 1.1 mm 1 m/S 723 mmHg 73%
17:00 +23°C° 0.9 mm 0 m/S 722 mmHg 77%
18:00 +21°C° 0.9 mm 0 m/S 722 mmHg 81%
19:00 +20°C° 0.9 mm 0 m/S 722 mmHg 86%
20:00 +19°C° 0.8 mm 0 m/S 722 mmHg 87%
21:00 +19°C° 0.8 mm 0 m/S 722 mmHg 89%
22:00 +21°C° 0.8 mm 1 m/S 723 mmHg 90%
23:00 +20°C° 0.4 mm 1 m/S 723 mmHg 91%

16 August, Sonntag

Zeit Temperatur Niederschläge Wind Luftdruck Luftfeuchtigkeit
00:00 +18°C° 0.4 mm 0 m/S 722 mmHg 91%
01:00 +18°C° 0.4 mm 0 m/S 722 mmHg 92%
02:00 +18°C° 0.5 mm 0 m/S 722 mmHg 92%
03:00 +18°C° 0.5 mm 0 m/S 722 mmHg 92%
04:00 +17°C° 0.5 mm 0 m/S 722 mmHg 92%
05:00 +18°C° 0.4 mm 0 m/S 722 mmHg 92%
06:00 +18°C° 0.4 mm 0 m/S 722 mmHg 92%
07:00 +19°C° 0.4 mm 0 m/S 723 mmHg 91%
08:00 +20°C° 0.3 mm 0 m/S 723 mmHg 86%
09:00 +23°C° 0.3 mm 1 m/S 723 mmHg 82%
10:00 +25°C° 0.3 mm 1 m/S 723 mmHg 77%
11:00 +25°C° 1.6 mm 1 m/S 723 mmHg 78%
12:00 +25°C° 1.6 mm 1 m/S 723 mmHg 79%
13:00 +25°C° 1.6 mm 1 m/S 722 mmHg 80%
14:00 +25°C° 1.6 mm 1 m/S 722 mmHg 81%
15:00 +25°C° 1.6 mm 1 m/S 722 mmHg 82%
16:00 +25°C° 1.6 mm 1 m/S 722 mmHg 83%
17:00 +24°C° 0.2 mm 1 m/S 722 mmHg 86%
18:00 +22°C° 0.2 mm 1 m/S 722 mmHg 88%
19:00 +19°C° 0.2 mm 0 m/S 721 mmHg 90%
20:00 +19°C° 0 mm 0 m/S 722 mmHg 91%
21:00 +19°C° 0 mm 0 m/S 722 mmHg 91%
22:00 +18°C° 0 mm 0 m/S 722 mmHg 91%
23:00 +18°C° 0 mm 0 m/S 722 mmHg 92%

17 August, Montag

Zeit Temperatur Niederschläge Wind Luftdruck Luftfeuchtigkeit
00:00 +18°C° 0 mm 0 m/S 722 mmHg 93%
01:00 +18°C° 0 mm 0 m/S 722 mmHg 93%
02:00 +18°C° 0 mm 0 m/S 722 mmHg 93%
03:00 +17°C° 0 mm 0 m/S 722 mmHg 94%
04:00 +17°C° 0 mm 0 m/S 722 mmHg 94%
05:00 +18°C° 0 mm 0 m/S 722 mmHg 93%
06:00 +19°C° 0 mm 0 m/S 722 mmHg 92%
07:00 +19°C° 0 mm 0 m/S 722 mmHg 92%
08:00 +21°C° 0.1 mm 0 m/S 722 mmHg 86%
09:00 +24°C° 0.1 mm 1 m/S 722 mmHg 80%
10:00 +26°C° 0.1 mm 1 m/S 722 mmHg 74%
11:00 +26°C° 0.5 mm 1 m/S 722 mmHg 72%
12:00 +27°C° 0.5 mm 1 m/S 722 mmHg 71%
13:00 +28°C° 0.5 mm 1 m/S 722 mmHg 70%
14:00 +28°C° 0.8 mm 1 m/S 721 mmHg 70%
15:00 +28°C° 0.8 mm 1 m/S 721 mmHg 70%
16:00 +28°C° 0.8 mm 1 m/S 721 mmHg 70%
17:00 +26°C° 0.1 mm 1 m/S 720 mmHg 75%
18:00 +25°C° 0.1 mm 1 m/S 720 mmHg 80%
19:00 +23°C° 0.1 mm 1 m/S 720 mmHg 85%
20:00 +23°C° 0 mm 1 m/S 720 mmHg 86%
21:00 +22°C° 0 mm 1 m/S 720 mmHg 87%
22:00 +21°C° 0 mm 1 m/S 721 mmHg 88%
23:00 +21°C° 0.1 mm 1 m/S 721 mmHg 89%
Mehr zeigen